TimePDT,TemperatureF,Dew PointF,Humidity,Sea Level PressureIn,VisibilityMPH,Wind Direction,Wind SpeedMPH,Gust SpeedMPH,PrecipitationIn,Events,Conditions,WindDirDegrees,DateUTC
12:53 AM,48.9,30.9,50,30.05,10.0,Calm,Calm,-,N/A,,Clear,0,2012-10-04 07:53:00
1:53 AM,48.0,32.0,54,30.06,10.0,Calm,Calm,-,N/A,,Clear,0,2012-10-04 08:53:00
2:53 AM,45.0,33.1,63,30.06,10.0,Calm,Calm,-,N/A,,Clear,0,2012-10-04 09:53:00
3:53 AM,43.0,32.0,65,30.07,10.0,Calm,Calm,-,N/A,,Clear,0,2012-10-04 10:53:00
4:53 AM,43.0,32.0,65,30.08,10.0,Calm,Calm,-,N/A,,Clear,0,2012-10-04 11:53:00
5:53 AM,42.1,32.0,67,30.09,10.0,Calm,Calm,-,N/A,,Clear,0,2012-10-04 12:53:00
6:53 AM,39.9,30.9,70,30.09,10.0,Calm,Calm,-,N/A,,Clear,0,2012-10-04 13:53:00
7:53 AM,39.9,32.0,73,30.12,10.0,Calm,Calm,-,N/A,,Clear,0,2012-10-04 14:53:00
8:53 AM,44.1,33.1,65,30.14,10.0,Calm,Calm,-,N/A,,Clear,0,2012-10-04 15:53:00
9:53 AM,48.9,34.0,56,30.14,10.0,Calm,Calm,-,N/A,,Clear,0,2012-10-04 16:53:00
10:53 AM,55.0,32.0,42,30.13,10.0,Calm,Calm,-,N/A,,Clear,0,2012-10-04 17:53:00
11:53 AM,60.1,30.9,33,30.12,10.0,Calm,Calm,-,N/A,,Clear,0,2012-10-04 18:53:00
12:53 PM,64.9,30.9,28,30.11,10.0,Calm,Calm,-,N/A,,Clear,0,2012-10-04 19:53:00
1:53 PM,69.1,32.0,25,30.09,10.0,Variable,4.6,-,N/A,,Clear,0,2012-10-04 20:53:00
2:53 PM,72.0,28.9,20,30.07,10.0,NNW,4.6,-,N/A,,Clear,340,2012-10-04 21:53:00
3:53 PM,75.0,28.0,18,30.06,10.0,North,5.8,-,N/A,,Clear,360,2012-10-04 22:53:00
4:53 PM,75.9,28.0,17,30.05,10.0,North,10.4,-,N/A,,Clear,10,2012-10-04 23:53:00
5:53 PM,75.9,30.0,19,30.05,10.0,NNW,4.6,-,N/A,,Clear,340,2012-10-05 00:53:00
6:53 PM,71.1,30.0,22,30.06,10.0,North,8.1,-,N/A,,Clear,10,2012-10-05 01:53:00
7:53 PM,66.9,30.9,26,30.07,10.0,North,3.5,-,N/A,,Clear,360,2012-10-05 02:53:00
8:53 PM,60.1,33.1,36,30.08,10.0,Calm,Calm,-,N/A,,Clear,0,2012-10-05 03:53:00
9:53 PM,55.9,33.1,42,30.09,10.0,Calm,Calm,-,N/A,,Clear,0,2012-10-05 04:53:00
10:53 PM,52.0,33.1,49,30.10,10.0,Calm,Calm,-,N/A,,Clear,0,2012-10-05 05:53:00
11:53 PM,50.0,33.1,52,30.11,10.0,Calm,Calm,-,N/A,,Clear,0,2012-10-05 06:53:00